sat.trackr.live / text

‹ back to catalog

STARLINK-34120

NORAD 63898 · 2025-095J

PAYLOAD ACTIVE UNKNOWN

§ Identity

Operator
Country
US
Launch date
2025-05-10
Launch site
AFETR
Launch vehicle
Mass (kg)
RCS (m²)

Purposes: comms

External: N2YO · Heavens-Above · Gunter

§ Orbital elements

Epoch: 2026-09-19T02:32:19.866336Z

Period
94.27 min
Inclination
43.0023°
Eccentricity
0.0001747
Mean motion
15.27598022 rev/d
Perigee alt
481.8 km
Apogee alt
484.2 km
Semi-major
6,861.1 km
B*
6.4982e-4
RAAN
163.4416°
Arg perigee
274.1606°
Mean anomaly
85.9046°
Rev number
7,737

§ Raw data

STARLINK-341201 63898U 25095J   26262.10578549  .00017672  00000+0  64982-3 0  99962 63898  43.0023 163.4416 0001747 274.1606  85.9046 15.27598022 77375

JSON: /api/v1/satellites/63898 · /tle

For live sub-satellite position, see the globe view (requires WebGL).

§ Visibility from observer

Set your observer location to see the next 7 days of passes ≥ 10°. The values pass through the URL so the page stays shareable.

No JS? Fill the form by hand. The geolocation button needs JavaScript.